Regional Weather Roundup
Issued by NWS Midland/Odessa, TX

Skip options and go directly to product.
Home | Oldest Version | Next Version | Current Version | All | Text Only | Save Text | Print | Product List | Glossary On

Skip product version selection by date and time.   
991
ASUS44 KMAF 302201
RWRMAF
MIDLAND AREA WEATHER ROUNDUP
NATIONAL WEATHER SERVICE MIDLAND TX
400 PM CST FRI JAN 30 2015

...IN SOUTHWEST TEXAS AND SOUTHEAST NEW MEXICO...

CITY           SKY/WX    TMP DP  RH WIND       PRES   REMARKS
ALPINE         CLOUDY    46  34  64 NE5       30.26S
ANDREWS        CLOUDY    45  30  57 SE7       30.25F
ARTESIA        CLOUDY    41  34  75 SE7       30.23F WCI  36
BIG SPRING     CLOUDY    51  30  44 E9        30.28F
CARLSBAD       CLOUDY    43  33  68 E8        30.21F WCI  38
DRYDEN           N/A     51  42  71 E10       30.22S
FORT STOCKTON  CLOUDY    49  37  63 E13       30.21F
GUAD PASS      MIX PCPN  32  32 100 NE30      30.14F VSB<1/4 WCI  18
HOBBS          CLOUDY    41  32  70 E10       30.24F WCI  35
MARFA          CLOUDY    46  36  66 NE14      30.17F
MIDLAND AIRPK  CLOUDY    48  31  51 E9        30.26F
MIDLAND INTL   CLOUDY    48  31  51 SE12      30.24F
ODESSA         CLOUDY    47  31  53 SE10      30.25F
PECOS          CLOUDY    48  33  56 E8        30.23F
PRESIDIO       DRIZZLE   57  43  59 NE12G18   30.09F
SEMINOLE       CLOUDY    44  29  56 SE8       30.27S WCI  39
SNYDER         CLOUDY   N/A N/A N/A E13       30.29F
WINK           CLOUDY    48  32  53 SE6       30.22F
$$
...OTHER STATIONS IN TEXAS...

CITY           SKY/WX    TMP DP  RH WIND       PRES   REMARKS
ABILENE        CLOUDY    51  30  44 E10       30.31F
AMARILLO       LGT RAIN  38  29  70 S9        30.28F WCI  31
AUSTIN         CLOUDY    57  40  52 NE9       30.30F
BROWNSVILLE    PTSUNNY   70  61  73 NE15G23   30.20F
CORPUS CHRISTI CLOUDY    61  52  72 E20       30.25F
DALLAS FTW     PTSUNNY   56  29  35 E7        30.34F
DEL RIO        CLOUDY    59  38  45 SW7       30.23F
EL PASO        LGT RAIN  46  39  76 E13       30.06F
HOUSTON INT    PTSUNNY   64  38  38 NE12      30.31F
LUBBOCK        CLOUDY    43  28  55 SE9       30.26F WCI  38
SAN ANGELO     PTSUNNY   53  34  48 NE13      30.26F
SAN ANTONIO    CLOUDY    58  40  51 NE13      30.28F
WACO           CLOUDY    54  35  48 NE8       30.34F
WICHITA FALLS  NOT AVBL
$$
...OTHER LOCATIONS IN NEW MEXICO...

CITY           SKY/WX    TMP DP  RH WIND       PRES   REMARKS
ALAMAGORDO     LGT RAIN  45  43  93 N9        30.10F WCI  40
ALBUQUERQUE    LGT RAIN  37  31  78 E13       30.11F WCI  29
CANNON AFB     NOT AVBL
CLOVIS         CLOUDY    36  28  75 S8        30.24F WCI  29
HOLLOMAN AFB   LGT RAIN  45  43  93 NE8       30.08F
ROSWELL        CLOUDY    41  31  67 SE7       30.21F WCI  36
RUIDOSO        CLOUDY    32  32 100 SE12      30.15F WCI  23
SANTA FE       CLOUDY    32  27  81 S6        30.14F WCI  26
TRUTH OR CONSE LGT RAIN  39  38  96 NE7       30.08F WCI  34
TUCUMCARI      LGT RAIN  37  34  89 SE5       30.23F WCI  33
$$

USA.gov is the U.S. government's official web portal to all federal, state and local government web resources and services.